Regional Weather Roundup
Issued by NWS Memphis, TN

Home | Current Version | Previous Version | Text Only | Print | Product List | Glossary On
Versions: 1 2 3 4 5 6 7 8 9 10 11 12 13 14 15 16 17 18 19 20 21 22 23 24 25 26 27 28 29 30 31 32 33 34 35 36 37 38 39 40 41 42 43 44 45 46 47 48 49 50
000
ASUS44 KMEG 301110
RWRMEG
MEMPHIS CWA HOURLY WEATHER ROUNDUP
NATIONAL WEATHER SERVICE MEMPHIS TN
600 AM CDT THU JUL 30 2015

...WEST TENNESSEE...

CITY           SKY/WX    TMP DP  RH WIND       PRES   REMARKS
MEMPHIS INTL   PTCLDY    81  75  82 N8        30.05R
NWS MEMPHIS      N/A     80 N/A N/A MISG        N/A
JACKSON        PTCLDY    78  74  87 N8        30.06R
DYERSBURG        N/A    N/A N/A N/A MISG        N/A
PARIS          PTCLDY    72  64  78 N7        30.09R


...EASTERN ARKANSAS...

CITY           SKY/WX    TMP DP  RH WIND       PRES   REMARKS
JONESBORO      CLEAR     75  64  68 NE8G18    30.09R
WEST MEMPHIS   CLEAR     78  76  93 N8        30.05R
BATESVILLE     CLOUDY    75  70  83 N3        30.12R
NEWPORT        CLOUDY    76  72  87 N10       30.11R
WALNUT RIDGE   CLEAR     73  64  73 N7        30.11R
BLYTHEVILLE    MOCLDY    74  71  91 N8        30.08R
STUTTGART      CLEAR     79  73  83 N9        30.06R
PINE BLUFF     CLEAR     80  76  87 N8        30.05R
MONTICELLO     CLEAR     80  76  87 CALM      30.03R


...NORTH MISSISSIPPI...

CITY           SKY/WX    TMP DP  RH WIND       PRES   REMARKS
TUPELO         CLEAR     75  73  93 NE6       30.01R
OLIVE BRANCH     N/A     79  79 100 N8        30.06R
TUNICA         CLEAR     77  73  88 N8        30.05R
CLARKSDALE     CLEAR     77  77 100 N7        30.04R
CORINTH        MOCLDY    77  73  88 N3        30.03R
GREENWOOD      CLEAR     75  72  90 CALM      30.00S
COLUMBUS       CLEAR     73  72  97 NW2       29.98S
STARKVILLE       N/A     72  70  94 CALM      29.99S FOG
GOLDEN TRIANGL CLEAR     75  70  83 CALM      29.98S


...SOUTHEAST MISSOURI...

CITY           SKY/WX    TMP DP  RH WIND       PRES   REMARKS
WEST PLAINS    CLEAR     66  61  84 CALM      30.17S
POPLAR BLUFF   CLEAR     68  64  87 N6        30.11R


...NORTHWEST ALABAMA...

CITY           SKY/WX    TMP DP  RH WIND       PRES   REMARKS
MUSCLE SHOALS  CLEAR     76  73  91 N6        30.03R


...MIDDLE TENNESSEE...

CITY           SKY/WX    TMP DP  RH WIND       PRES   REMARKS
NASHVILLE      MOCLDY    77  72  84 N13       30.05R
CLARKSVILLE    CLOUDY    73  66  78 N6        30.08R
COLUMBIA       MOCLDY    75  75 100 VRB3      30.04R


...WESTERN KENTUCKY...

CITY           SKY/WX    TMP DP  RH WIND       PRES   REMARKS
PADUCAH        CLEAR     70  62  76 N5        30.09R
FORT CAMPBELL  MOCLDY    72  65  80 N6        30.08R


...CENTRAL ARKANSAS...

CITY           SKY/WX    TMP DP  RH WIND       PRES   REMARKS
LITTLE ROCK    PTCLDY    81  73  76 NE7       30.07R


SKY/WX REPORTED AS FAIR MEANS FEW OR NO CLOUDS BELOW
12 THOUSAND FEET.




USA.gov is the U.S. government's official web portal to all federal, state and local government web resources and services.